This is the latest recevied weather packets stored in our database for station/object VA7IM-13. If no packets are shown the sender has not sent any weather packets the latest 1 day(s).
| Time | Temp. | Humidity | Pressure | Rain* | Wind** | Luminosity | Snow |
|---|---|---|---|---|---|---|---|
| 1777992119 | 14.44° C | - | - | 0 mm | 4.02 m/s, 158° | - | - |
| 1777991819 | 14.44° C | - | - | 0 mm | 2.68 m/s, 113° | - | - |
| 1777991518 | 14.44° C | - | - | 0 mm | 3.13 m/s, 135° | - | - |
| 1777991219 | 14.44° C | - | - | 0 mm | 1.79 m/s, 158° | - | - |
| 1777990919 | 14.44° C | - | - | 0 mm | 2.68 m/s, 113° | - | - |
| 1777990619 | 14.44° C | - | - | 0 mm | 1.79 m/s, 225° | - | - |
| 1777990320 | 13.89° C | - | - | 0 mm | 1.79 m/s, 113° | - | - |
| 1777990018 | 13.89° C | - | - | 0 mm | 1.34 m/s, 158° | - | - |
| 1777989717 | 13.89° C | - | - | 0 mm | 2.68 m/s, 68° | - | - |
| 1777989417 | 13.33° C | - | - | 0 mm | 2.68 m/s, 225° | - | - |
| 1777989118 | 13.33° C | - | - | 0 mm | 3.13 m/s, 113° | - | - |
| 1777988818 | 13.33° C | - | - | 0 mm | 0.89 m/s, 135° | - | - |
| 1777988517 | 13.33° C | - | - | 0 mm | 1.79 m/s, 90° | - | - |
| 1777988218 | 13.33° C | - | - | 0 mm | 1.79 m/s, 45° | - | - |
| 1777987919 | 12.78° C | - | - | 0 mm | 2.24 m/s, 23° | - | - |
| 1777987618 | 12.78° C | - | - | 0 mm | 2.24 m/s, 90° | - | - |
| 1777987317 | 12.78° C | - | - | 0 mm | 2.24 m/s, 113° | - | - |
| 1777987017 | 12.78° C | - | - | 0 mm | 2.24 m/s, 45° | - | - |
| 1777978618 | 13.33° C | - | - | 0 mm | 0.45 m/s, 113° | - | - |
| 1777978319 | 13.33° C | - | - | 0 mm | 0 m/s | - | - |
| 1777977718 | 13.33° C | - | - | 0 mm | 0.45 m/s, 158° | - | - |
| 1777977417 | 13.89° C | - | - | 0 mm | 0 m/s | - | - |
| 1777977117 | 13.89° C | - | - | 0 mm | 1.34 m/s, 113° | - | - |
| 1777976818 | 13.89° C | - | - | 0 mm | 1.34 m/s, 135° | - | - |
| 1777976518 | 13.89° C | - | - | 0 mm | 0 m/s | - | - |
* Rain since midnight (hover to see other rain measurements)
** Current wind speed in m/s (hover to see current wind gust speed)